GW4716 Weather Reports


time (UTC)temp
C
wind
direction
speed
KPH
gust
KPH
rain 1hr
cm
rain 24hr
cm
rain mn
cm
humidity
%
barometer
mb
20260503220143 14 274 1.6 6.4 0.00 0.00 0.00 34 1016.1
20260503215641 15 13 4.8 11.3 0.00 0.00 0.00 31 1016.1
20260503215137 15 36 1.6 4.8 0.00 0.00 0.00 29 1016.1
20260503214636 15 32 4.8 4.8 0.00 0.00 0.00 28 1016.3
20260503214132 15 8 1.6 4.8 0.00 0.00 0.00 32 1016.2
20260503213631 15 6 3.2 4.8 0.00 0.00 0.00 30 1016.4
20260503213127 15 285 1.6 3.2 0.00 0.00 0.00 32 1016.4
20260503212625 14 105 1.6 4.8 0.00 0.00 0.00 30 1016.7
20260503212122 14 312 6.4 11.3 0.00 0.00 0.00 30 1016.6
20260503211620 14 39 6.4 12.9 0.00 0.00 0.00 28 1016.6
20260503211115 14 351 4.8 12.9 0.00 0.00 0.00 30 1016.7
20260503210612 15 40 4.8 12.9 0.00 0.00 0.00 29 1016.6
20260503210108 14 80 0.0 4.8 0.00 0.00 0.00 32 1016.4
20260503205559 14 45 6.4 9.7 0.00 0.00 0.00 30 1016.6
20260503205055 14 47 1.6 3.2 0.00 0.00 0.00 29 1016.7
20260503204552 14 341 4.8 12.9 0.00 0.00 0.00 31 1016.7
20260503204050 15 68 3.2 4.8 0.00 0.00 0.00 28 1016.9
20260503203547 15 51 3.2 4.8 0.00 0.00 0.00 30 1017.0
20260503203044 14 58 1.6 11.3 0.00 0.00 0.00 28 1017.1
20260503202541 14 358 11.3 17.7 0.00 0.00 0.00 29 1017.0
20260503202034 14 66 9.7 16.1 0.00 0.00 0.00 28 1017.1
20260503201532 14 0 4.8 9.7 0.00 0.00 0.00 30 1017.2
20260503201028 14 347 8.0 14.5 0.00 0.00 0.00 31 1017.0
20260503200524 14 358 4.8 11.3 0.00 0.00 0.00 29 1017.3
20260503200015 14 104 6.4 14.5 0.00 0.00 0.00 30 1017.3
20260503195513 15 64 4.8 6.4 0.00 0.00 0.00 32 1017.4
20260503195009 15 342 9.7 12.9 0.00 0.00 0.00 31 1017.4
20260503194506 14 298 6.4 9.7 0.00 0.00 0.00 29 1017.4
20260503194000 14 45 6.4 6.4 0.00 0.00 0.00 28 1017.6
20260503193457 14 316 4.8 14.5 0.00 0.00 0.00 30 1017.4
20260503192952 15 145 3.2 4.8 0.00 0.00 0.00 27 1017.7
20260503192449 15 142 4.8 12.9 0.00 0.00 0.00 31 1017.5
20260503191944 14 135 4.8 12.9 0.00 0.00 0.00 29 1017.5
20260503191442 15 54 3.2 9.7 0.00 0.00 0.00 35 1017.6
20260503190938 13 209 3.2 11.3 0.00 0.00 0.00 32 1017.7
20260503190436 13 66 4.8 9.7 0.00 0.00 0.00 34 1017.9
20260503185933 13 161 6.4 11.3 0.00 0.00 0.00 34 1017.9
20260503185429 14 61 6.4 9.7 0.00 0.00 0.00 32 1018.1
20260503184928 14 59 1.6 4.8 0.00 0.00 0.00 33 1017.9
20260503184425 13 15 1.6 6.4 0.00 0.00 0.00 35 1018.1
20260503183922 13 140 3.2 9.7 0.00 0.00 0.00 33 1018.2
20260503183418 13 9 1.6 11.3 0.00 0.00 0.00 32 1018.4
20260503182915 13 344 14.5 22.5 0.00 0.00 0.00 32 1018.3
20260503182414 13 315 6.4 24.1 0.00 0.00 0.00 35 1018.4
20260503181911 13 341 6.4 16.1 0.00 0.00 0.00 38 1018.1
20260503181408 13 55 3.2 12.9 0.00 0.00 0.00 33 1018.4
20260503180904 13 41 9.7 14.5 0.00 0.00 0.00 34 1018.5
20260503180403 13 3 9.7 12.9 0.00 0.00 0.00 34 1018.6
20260503175858 13 171 4.8 4.8 0.00 0.00 0.00 31 1018.5
20260503175357 12 102 4.8 16.1 0.00 0.00 0.00 37 1018.4
20260503174857 13 11 4.8 9.7 0.00 0.00 0.00 36 1018.8
20260503174356 13 2 12.9 20.9 0.00 0.00 0.00 33 1018.5
20260503173851 12 40 9.7 14.5 0.00 0.00 0.00 33 1018.4
20260503173348 12 7 4.8 11.3 0.00 0.00 0.00 39 1018.3
20260503172844 12 43 9.7 11.3 0.00 0.00 0.00 31 1018.8
20260503172342 12 64 0.0 4.8 0.00 0.00 0.00 32 1018.5
20260503171838 12 311 3.2 11.3 0.00 0.00 0.00 37 1018.8
20260503171335 11 318 3.2 17.7 0.00 0.00 0.00 34 1018.9
20260503170832 11 171 1.6 37.0 0.00 0.00 0.00 35 1018.9
20260503170329 11 26 12.9 16.1 0.00 0.00 0.00 37 1019.0
20260503150721 10 52 6.4 12.9 0.00 0.00 0.00 43 1019.9
20260503150217 10 136 1.6 9.7 0.00 0.00 0.00 43 1020.0
20260503140142 8 19 8.0 20.9 0.00 0.00 0.00 46 1020.2
20260503131111 7 353 6.4 6.4 0.00 0.00 0.00 51 1020.0
20260503130608 7 349 12.9 20.9 0.00 0.00 0.00 51 1019.9
20260503130106 7 355 12.9 24.1 0.00 0.00 0.00 53 1020.1
20260503110458 5 253 0.0 0.0 0.00 0.00 0.00 59 1019.1
20260503090344 2 250 1.6 3.2 0.00 0.00 0.00 80 1017.9
20260503081311 3 12 3.2 9.7 0.00 0.00 0.00 77 1017.5
20260503080807 3 5 3.2 6.4 0.00 0.00 0.00 75 1017.6
20260503080305 3 25 1.6 12.9 0.00 0.00 0.00 71 1017.2
20260503072741 3 214 0.0 0.0 0.00 0.00 0.00 70 1016.9
20260503072238 3 260 1.6 3.2 0.00 0.00 0.00 69 1017.0
20260503071734 3 255 1.6 3.2 0.00 0.00 0.00 70 1017.0
20260503071231 3 258 0.0 0.0 0.00 0.00 0.00 70 1016.9
20260503070727 3 272 0.0 0.0 0.00 0.00 0.00 69 1017.0
20260503070226 3 236 1.6 3.2 0.00 0.00 0.00 70 1016.8
20260503060150 4 248 3.2 3.2 0.00 0.00 0.00 68 1016.8
20260503054637 5 312 0.0 3.2 0.00 0.00 0.00 65 1016.9
20260503054135 5 273 0.0 1.6 0.00 0.00 0.00 62 1017.0
20260503053633 5 351 4.8 6.4 0.00 0.00 0.00 62 1016.9
20260503053131 5 7 1.6 3.2 0.00 0.00 0.00 64 1016.7
20260503052627 5 74 1.6 4.8 0.00 0.00 0.00 61 1016.8
20260503052124 5 229 1.6 3.2 0.00 0.00 0.00 63 1016.7
20260503051619 5 333 0.0 3.2 0.00 0.00 0.00 61 1016.8
20260503051117 5 222 0.0 3.2 0.00 0.00 0.00 61 1016.4
20260503050613 5 25 6.4 11.3 0.00 0.00 0.00 62 1016.9
20260503050110 5 65 8.0 11.3 0.00 0.00 0.00 63 1016.7
20260503045607 5 335 0.0 4.8 0.00 0.00 0.00 65 1016.8
20260503045104 5 322 0.0 6.4 0.00 0.00 0.00 64 1016.8
20260503044601 5 242 1.6 3.2 0.00 0.00 0.00 69 1016.7
20260503044059 5 234 0.0 4.8 0.00 0.00 0.00 67 1016.9
20260503043554 5 216 3.2 4.8 0.00 0.00 0.00 70 1016.8
20260503043051 5 324 1.6 3.2 0.00 0.00 0.00 71 1016.8
20260503042548 5 313 0.0 1.6 0.00 0.00 0.00 71 1017.0
20260503042045 5 314 0.0 3.2 0.00 0.00 0.00 68 1016.6
20260503041542 5 298 0.0 4.8 0.00 0.00 0.00 68 1016.8
20260503041039 5 256 0.0 1.6 0.00 0.00 0.00 69 1016.8
20260503040537 5 250 0.0 1.6 0.00 0.00 0.00 69 1016.9
20260503040034 5 262 0.0 0.0 0.00 0.00 0.00 67 1016.8
20260503035530 5 249 1.6 1.6 0.00 0.00 0.00 69 1016.8
20260503035028 5 248 1.6 1.6 0.00 0.00 0.00 68 1017.0
20260503034525 5 249 1.6 1.6 0.00 0.00 0.00 66 1016.9
20260503034022 6 343 1.6 3.2 0.00 0.00 0.00 65 1016.9
20260503033519 6 334 1.6 4.8 0.00 0.00 0.00 64 1017.0
20260503033018 6 331 0.0 3.2 0.00 0.00 0.00 67 1016.8
20260503032515 5 109 1.6 3.2 0.00 0.00 0.00 63 1016.9
20260503032013 6 283 0.0 3.2 0.00 0.00 0.00 66 1016.9
20260503031511 5 42 8.0 9.7 0.00 0.00 0.00 64 1016.7
20260503031007 5 251 0.0 1.6 0.00 0.00 0.00 65 1016.8
20260503030503 5 252 0.0 3.2 0.00 0.00 0.00 65 1017.0
20260503030000 5 240 1.6 1.6 0.00 0.00 0.00 67 1017.0
20260503025457 5 224 1.6 3.2 0.00 0.00 0.00 67 1016.9
20260503024955 5 239 3.2 3.2 0.00 0.00 0.00 63 1016.9
20260503024451 6 255 1.6 1.6 0.00 0.00 0.00 64 1017.0
20260503023949 6 197 0.0 1.6 0.00 0.00 0.00 60 1017.2
20260503023445 6 250 1.6 3.2 0.00 0.00 0.00 60 1016.9
20260503022942 5 265 0.0 1.6 0.00 0.00 0.00 64 1017.0
20260503022437 5 263 1.6 4.8 0.00 0.00 0.00 60 1017.0
20260503021933 5 249 1.6 3.2 0.00 0.00 0.00 62 1016.9
20260503021430 5 243 3.2 3.2 0.00 0.00 0.00 62 1016.7
20260503020927 6 234 3.2 4.8 0.00 0.00 0.00 63 1016.8
20260503020425 5 244 4.8 4.8 0.00 0.00 0.00 65 1016.8
20260503015921 5 242 1.6 3.2 0.00 0.00 0.00 64 1016.6
20260503015418 6 244 3.2 4.8 0.00 0.00 0.00 63 1016.8
20260503014914 6 266 0.0 4.8 0.00 0.00 0.00 57 1016.7
20260503014411 6 242 1.6 1.6 0.00 0.00 0.00 61 1016.7
20260503013909 6 241 1.6 1.6 0.00 0.00 0.00 58 1016.8
20260503013406 7 359 1.6 3.2 0.00 0.00 0.00 54 1016.4
20260503012903 6 329 3.2 9.7 0.00 0.00 0.00 54 1016.4
20260503012401 6 357 1.6 3.2 0.00 0.00 0.00 57 1016.6
20260503011857 7 230 0.0 1.6 0.00 0.00 0.00 61 1016.2
20260503011349 7 221 3.2 3.2 0.00 0.00 0.00 52 1016.3
20260503010845 7 257 1.6 1.6 0.00 0.00 0.00 51 1016.0
20260503010342 7 213 3.2 4.8 0.00 0.00 0.00 52 1016.0
20260503005839 7 318 0.0 0.0 0.00 0.00 0.00 50 1016.0
20260503005337 7 304 0.0 0.0 0.00 0.00 0.00 52 1015.9
20260503004832 8 284 0.0 0.0 0.00 0.00 0.00 50 1015.7
20260503004330 8 231 1.6 4.8 0.00 0.00 0.00 48 1015.7
20260503003828 8 20 3.2 3.2 0.00 0.00 0.00 47 1015.7
20260503003324 8 293 4.8 6.4 0.00 0.00 0.00 48 1015.6
20260503002821 8 72 1.6 3.2 0.00 0.00 0.00 45 1015.5
20260503002318 8 243 1.6 3.2 0.00 0.00 0.00 50 1015.7
20260503001814 7 272 1.6 3.2 0.00 0.00 0.00 47 1015.4
20260503001311 8 238 0.0 3.2 0.00 0.00 0.00 52 1015.4
20260503000808 8 248 1.6 1.6 0.00 0.00 0.00 49 1015.4
20260503000305 8 122 1.6 11.3 0.00 0.00 0.00 42 1015.1
20260502235802 8 36 0.0 3.2 0.00 0.00 0.00 45 1015.2
20260502235300 9 24 1.6 1.6 0.00 0.00 0.00 47 1015.3
20260502234756 9 155 1.6 4.8 0.00 0.00 0.00 42 1015.0
20260502234253 9 299 1.6 1.6 0.00 0.00 0.00 43 1015.0
20260502233749 9 139 9.7 17.7 0.00 0.00 0.00 41 1015.1
20260502233246 9 113 4.8 6.4 0.00 0.00 0.00 42 1014.8
20260502232742 9 53 1.6 6.4 0.00 0.00 0.00 41 1014.9
20260502232239 9 306 3.2 6.4 0.00 0.00 0.00 43 1015.0
20260502231736 9 81 3.2 6.4 0.00 0.00 0.00 44 1014.8
20260502231234 9 164 0.0 4.8 0.00 0.00 0.00 44 1014.9
20260502230732 10 334 1.6 3.2 0.00 0.00 0.00 42 1014.7
20260502230230 10 28 3.2 6.4 0.00 0.00 0.00 41 1014.8
20260502225726 10 2 1.6 4.8 0.00 0.00 0.00 41 1015.0
20260502225223 10 358 0.0 1.6 0.00 0.00 0.00 43 1014.8
20260502224719 10 98 3.2 4.8 0.00 0.00 0.00 40 1014.8
20260502224216 10 44 3.2 12.9 0.00 0.00 0.00 41 1014.7
20260502223714 10 355 8.0 9.7 0.00 0.00 0.00 40 1014.8
20260502223212 10 138 1.6 3.2 0.00 0.00 0.00 41 1014.7
20260502222709 10 84 3.2 6.4 0.00 0.00 0.00 39 1014.9
20260502222206 10 349 4.8 6.4 0.00 0.00 0.00 41 1014.7
20260502221701 10 350 1.6 6.4 0.00 0.00 0.00 40 1014.7
20260502221159 10 100 1.6 11.3 0.00 0.00 0.00 40 1014.5
20260502220655 10 346 0.0 0.0 0.00 0.00 0.00 40 1014.6